CORVUS BC4

Last updated on Wed Nov 05 2025 00:03:48 GMT+0000 (Coordinated Universal Time)

1 43767U 18099K 25308.61575699 .00005990 00000+0 37250-3 0 9992 2 43767 97.4412 353.1063 0010020 60.8323 299.3908 15.09950364378484
UTC large
Height (km)
Speed (km/s)
/
Latitude / Longitude
Inclination (degrees)
Orbital Period (minutes)
Azimuth
Elevation
Range (km)
Doppler Factor

Next 0 passes for location: London (51.5072 / 0.1276)

Sorry there are no passes over London.